Tracking 19242 objects as of 15-Aug-2018
HD Live streaming from Space Station
objects crossing your sky now

MOLNIYA 3-8

Track MOLNIYA 3-8 now!
MOLNIYA 3-8 is classified as:


NORAD ID: 10455
Int'l Code: 1977-105A
Perigee: 1,139.4 km
Apogee: 39,213.8 km
Inclination: 62.2 °
Period: 717.5 minutes
Semi major axis: 26547 km
RCS: 13.5006 m2 (large)
Launch date: October 28, 1977
Source: Commonwealth of Independent States (former USSR) (CIS)
Launch site: PLESETSK MISSILE AND SPACE COMPLEX (PKMTR)
aabbcc
Your satellite tracking list
Your tracking list is empty




NASA's NSSDC Master Catalog

Two Line Element Set (TLE):
1 10455U 77105A   18226.05133121 +.00001429 +00000-0 +17631-1 0  9995
2 10455 062.1701 203.2201 7170959 271.8787 014.9208 02.00707916298984
Source of the keplerian elements: AFSPC